FW5354 Weather Reports


Display with metric or nautical units.
time (UTC)temp
F
wind
direction
speed
MPH
gust
MPH
rain 1hr
in
rain 24hr
in
rain mn
in
humidity
%
barometer
mb
20260905130017 78 136 0.0 0.0 0.00 0.77 0.00 31 1011.7
20260905124517 78 136 0.0 0.0 0.00 0.77 0.00 32 1011.4
20260905123016 0 0.0 0.0 0.00 0.77 0.00 1011.2
20260905121516 0 0.0 0.0 0.00 0.77 0.00 1011.1
20260905120016 0 0.0 0.0 0.00 0.77 0.00 1011.0
20260905114516 0 0.0 0.0 0.00 0.77 0.00 1010.9
20260905113017 0 0.0 0.0 0.00 0.77 0.00 1010.7
20260905111516 0 0.0 0.0 0.00 0.77 0.00 1010.5
20260905110016 0 0.0 0.0 0.00 0.77 0.00 1010.4
20260905104515 0 0.0 0.0 0.00 0.77 0.00 1010.3
20260905103028 0 0.0 0.0 0.00 0.77 0.00 1010.3
20260905101516 0 0.0 0.0 0.00 0.77 0.00 1010.3
20260905100014 0 0.0 0.0 0.00 0.77 0.00 1010.3
20260905094514 0 0.0 0.0 0.00 0.77 0.00 1010.2
20260905093013 0 0.0 0.0 0.00 0.77 0.00 1010.3
20260905091514 0 0.0 0.0 0.00 0.77 0.00 1010.3
20260905090013 0 0.0 0.0 0.00 0.77 0.00 1010.2
20260905084517 0 0.0 0.0 0.00 0.77 0.00 1010.2
20260905083013 0 0.0 0.0 0.00 0.77 0.00 1010.1
20260905081513 0 0.0 0.0 0.00 0.77 0.00 1010.3
20260905080017 0 0.0 0.0 0.00 0.77 0.00 1010.3
20260905074516 0 0.0 0.0 0.00 0.77 0.00 1010.3
20260905073008 0 0.0 0.0 0.00 0.77 0.00 1010.4
20260905071509 0 0.0 0.0 0.00 0.77 0.00 1010.6
20260905070002 0 0.0 0.0 0.00 0.77 0.00 1010.6
20260905064611 0 0.0 0.0 0.00 0.77 0.00 1010.7
20260905063059 0 0.0 0.0 0.00 0.77 0.00 1010.8
20260905061613 0 0.0 0.0 0.00 0.77 0.00 1011.0
20260905060052 80 136 0.0 0.0 0.00 0.77 0.00 58 1011.0
20260905054555 80 136 0.0 0.0 0.00 0.77 0.00 59 1010.9
20260905053050 80 136 0.0 0.0 0.00 0.77 0.00 62 1011.0
20260905051605 81 136 0.0 0.0 0.00 0.77 0.00 63 1011.0
20260905050058 81 136 0.0 0.0 0.00 0.77 0.00 65 1010.8
20260905044555 81 136 0.0 0.0 0.00 0.77 0.00 67 1010.8
20260905043045 81 136 0.0 0.0 0.00 0.77 0.00 68 1010.9
20260905041548 81 136 0.0 0.0 0.00 0.77 0.00 70 1011.1
20260905040052 81 136 0.0 0.0 0.00 0.77 0.00 71 1011.0
20260905034559 81 136 0.0 0.0 0.00 0.77 0.00 72 1011.2
20260905033100 81 136 0.0 0.0 0.00 0.77 0.00 73 1011.3
20260905031541 81 136 0.0 0.0 0.00 0.77 0.00 73 1011.2
20260905030041 81 136 0.0 0.0 0.00 0.77 0.00 73 1011.2
20260905024540 80 136 0.0 0.0 0.00 0.77 0.00 73 1011.0
20260905023116 81 136 0.0 0.0 0.00 0.77 0.00 73 1010.9
20260905021538 81 136 0.0 0.0 0.00 0.77 0.00 73 1010.7
20260905020037 80 136 0.0 0.0 0.00 0.77 0.00 73 1010.4
20260905014538 80 136 0.0 0.0 0.00 0.77 0.00 73 1010.3
20260905013035 81 136 0.0 0.0 0.00 0.77 0.00 73 1010.3
20260905011538 82 141 0.0 0.0 0.00 0.77 0.00 73 1010.1
20260905010042 84 157 0.0 0.0 0.00 0.77 0.00 70 1010.1
20260905004534 87 120 0.0 0.0 0.00 0.77 0.00 68 1010.0
20260905003033 88 119 0.0 0.0 0.00 0.77 0.00 66 1009.8
20260905001531 88 115 0.0 0.0 0.00 0.77 0.00 66 1009.5
20260905000031 89 169 0.0 0.0 0.00 0.77 0.00 66 1009.4
20260904234534 90 141 0.0 0.0 0.00 0.77 0.00 64 1009.5
20260904233030 91 159 0.0 0.0 0.00 0.77 0.00 63 1009.4
20260904231530 92 145 0.0 0.0 0.00 0.77 0.00 61 1009.3
20260904230031 93 118 0.0 0.0 0.00 0.77 0.00 59 1009.4
20260904224531 94 144 0.0 0.0 0.00 0.77 0.00 55 1009.3
20260904223027 94 134 0.0 0.0 0.00 0.77 0.00 58 1009.6
20260904221526 93 160 0.0 0.0 0.00 0.77 0.00 58 1009.6
20260904220039 93 130 0.0 0.0 0.00 0.77 0.00 57 1010.0
20260904214523 93 130 0.0 0.0 0.00 0.77 0.00 58 1009.7
20260904213023 93 130 0.0 0.0 0.00 0.78 0.00 61 1009.9
20260904211522 93 130 0.0 0.0 0.00 0.78 0.00 60 1010.1
20260904210027 93 126 0.0 0.0 0.00 0.78 0.00 62 1010.3
20260904204515 91 126 0.0 0.0 0.00 0.78 0.00 66 1010.6
20260904203012 90 129 0.0 0.0 0.00 0.84 0.00 68 1010.9
20260904201509 87 127 0.0 0.0 0.00 0.84 0.00 72 1011.1
20260904200012 85 129 0.0 0.0 0.00 0.84 0.00 72 1011.2
20260904194504 84 129 0.0 0.0 0.00 0.84 0.00 72 1011.4
20260904193113 82 134 0.0 0.0 0.00 0.97 0.00 61 1011.5
20260904191555 81 136 0.0 0.0 0.00 0.97 0.00 62 1011.7
20260904190052 80 139 0.0 0.0 0.00 0.97 0.00 65 1012.0
20260904184555 79 155 0.0 0.0 0.02 0.97 0.00 64 1012.2
20260904183044 78 164 0.0 0.0 0.11 0.97 0.97 46 1012.4
20260904181554 77 148 0.0 0.0 0.45 0.97 0.97 39 1012.6
20260904180053 75 151 0.0 0.0 0.77 0.97 0.97 39 1012.8
20260904174603 74 151 0.0 0.0 0.77 0.97 0.97 51 1012.9
20260904173042 74 117 0.0 0.0 0.69 0.89 0.89 58 1013.0
20260904171539 77 101 0.0 0.0 0.41 0.61 0.61 68 1014.1
20260904170036 84 92 0.0 0.0 0.00 0.20 0.20 72 1013.9
20260904164532 89 155 0.0 0.0 0.00 0.20 0.20 69 1013.0
20260904163036 92 142 0.0 0.0 0.00 0.20 0.20 65 1012.7
20260904161529 93 101 0.0 0.0 0.00 0.20 0.20 65 1012.3
20260904160028 91 252 0.0 0.0 0.00 0.20 0.20 68 1012.0
20260904154526 93 254 0.0 0.0 0.00 0.20 0.20 68 1012.0
20260904153032 92 255 0.0 0.0 0.00 0.20 0.20 70 1012.0
20260904151523 91 255 0.0 0.0 0.00 0.20 0.20 71 1012.0
20260904150016 88 255 0.0 0.0 0.00 0.20 0.20 72 1012.0
20260904144511 87 252 0.0 0.0 0.00 0.20 0.20 70 1012.0
20260904143006 85 252 0.0 0.0 0.00 0.20 0.20 65 1012.0
20260904141504 84 253 0.0 0.0 0.00 0.20 0.20 53 1012.1
20260904140002 83 253 0.0 0.0 0.00 0.20 0.20 52 1012.0
20260904134502 82 253 0.0 0.0 0.00 0.20 0.20 50 1012.1
20260904133111 82 253 0.0 0.0 0.00 0.20 0.20 48 1011.9
20260904131601 81 253 0.0 0.0 0.00 0.20 0.20 40 1011.7